CW3786 Weather Reports


Display with metric or nautical units.
time (UTC)temp
F
wind
direction
speed
MPH
gust
MPH
rain 1hr
in
rain 24hr
in
rain mn
in
humidity
%
barometer
mb
20260906003045 80 275 0.0 0.0 0.00 0.00 0.03 43 1004.2
20260906001513 80 277 1.0 0.0 0.00 0.00 0.03 41 1004.2
20260906000051 81 278 2.0 0.0 0.00 0.00 0.03 42 1004.2
20260905234522 84 277 1.0 0.0 0.00 0.00 0.03 35 1004.2
20260905233014 86 171 0.0 0.0 0.00 0.00 0.03 33 1004.2
20260905231552 85 171 0.0 0.0 0.00 0.00 0.03 28 1004.2
20260905230031 85 145 0.0 0.0 0.00 0.00 0.03 33 1004.3
20260905224524 85 133 0.0 0.0 0.00 0.00 0.03 36 1004.5
20260905223052 85 254 0.0 0.0 0.00 0.00 0.03 35 1004.5
20260905221542 85 259 1.0 0.0 0.00 0.00 0.03 39 1004.7
20260905220034 85 311 0.0 0.0 0.00 0.00 0.03 44 1004.8
20260905214530 84 269 2.0 0.0 0.00 0.00 0.03 44 1004.8
20260905213105 84 306 2.0 0.0 0.00 0.00 0.03 46 1005.2
20260905211544 84 294 0.0 0.0 0.00 0.00 0.03 49 1005.3
20260905210018 84 300 1.0 0.0 0.00 0.00 0.03 47 1005.4
20260905204511 84 317 1.0 0.0 0.00 0.00 0.03 44 1005.5
20260905203050 84 313 0.0 0.0 0.00 0.00 0.03 50 1005.5
20260905201542 83 286 0.0 0.0 0.00 0.00 0.03 48 1005.6
20260905200057 83 306 0.0 0.0 0.00 0.00 0.03 51 1005.8
20260905194542 81 292 0.0 0.0 0.00 0.00 0.03 48 1005.9
20260905193024 80 288 1.0 0.0 0.00 0.00 0.03 51 1006.3
20260905191504 79 317 1.0 0.0 0.00 0.00 0.03 55 1006.4
20260905190100 76 44 0.0 0.0 0.00 0.00 0.03 58 1006.4
20260905190004 76 44 0.0 0.0 0.00 0.00 0.03 58 1006.5
20260905184542 73 285 1.0 0.0 0.00 0.00 0.03 64 1006.5
20260905183023 71 49 1.0 0.0 0.00 0.00 0.03 74 1006.7
20260905181558 68 76 1.0 0.0 0.00 0.00 0.03 66 1006.7
20260905181501 68 76 1.0 0.0 0.00 0.00 0.03 64 1006.8
20260905180044 69 93 1.0 0.0 0.00 0.00 0.03 69 1006.8
20260905174523 74 83 1.0 0.0 0.00 0.00 0.03 67 1006.5
20260905173024 80 71 1.0 0.0 0.00 0.00 0.03 46 1006.5
20260905171526 78 80 2.0 0.0 0.00 0.00 0.00 50 1006.5
20260905170050 76 84 0.0 0.0 0.00 0.00 0.00 58 1006.5
20260905164512 74 82 1.0 0.0 0.00 0.00 0.00 65 1006.4
20260905163047 72 323 0.0 0.0 0.00 0.00 0.00 71 1006.4
20260905161537 69 323 0.0 0.0 0.00 0.00 0.00 79 1006.4
20260905160037 69 326 0.0 0.0 0.00 0.00 0.00 85 1006.4
20260905154556 68 314 0.0 0.0 0.00 0.00 0.00 91 1006.3
20260905153044 67 314 0.0 0.0 0.00 0.00 0.00 95 1006.2
20260905151544 66 314 0.0 0.0 0.00 0.00 0.00 96 1005.9
20260905150021 65 269 0.0 0.0 0.00 0.00 0.00 96 1005.9
20260905144551 64 265 0.0 0.0 0.00 0.00 0.00 96 1005.9
20260905143043 62 265 0.0 0.0 0.00 0.00 0.00 96 1005.9
20260905141523 62 265 0.0 0.0 0.00 0.00 0.00 95 1005.4
20260905140004 61 265 0.0 0.0 0.00 0.00 0.00 95 1005.2
20260905134527 61 265 0.0 0.0 0.00 0.00 0.00 95 1005.2
20260905133052 61 265 0.0 0.0 0.00 0.00 0.00 95 1005.2
20260905131537 61 265 0.0 0.0 0.00 0.00 0.00 95 1005.1
20260905130018 61 265 0.0 0.0 0.00 0.00 0.00 95 1005.1
20260905124548 61 265 0.0 0.0 0.00 0.00 0.00 94 1005.1
20260905123003 61 265 0.0 0.0 0.00 0.00 0.00 94 1004.9
20260905121555 62 265 0.0 0.0 0.00 0.00 0.00 94 1004.9
20260905120049 62 265 0.0 0.0 0.00 0.00 0.00 94 1005.0
20260905114540 62 265 0.0 0.0 0.00 0.00 0.00 94 1004.9
20260905113006 62 265 0.0 0.0 0.00 0.00 0.00 94 1005.1
20260905111543 62 265 0.0 0.0 0.00 0.00 0.00 94 1005.1
20260905110031 62 265 0.0 0.0 0.00 0.00 0.00 93 1005.2
20260905104540 62 265 0.0 0.0 0.00 0.00 0.00 93 1005.2
20260905103023 62 265 0.0 0.0 0.00 0.00 0.00 93 1005.3
20260905101521 62 265 0.0 0.0 0.00 0.00 0.00 93 1005.4
20260905100048 62 265 0.0 0.0 0.00 0.00 0.00 93 1005.4
20260905094531 62 265 0.0 0.0 0.00 0.00 0.00 92 1005.4
20260905093026 62 265 0.0 0.0 0.00 0.00 0.00 92 1005.4
20260905091511 62 265 0.0 0.0 0.00 0.00 0.00 92 1005.4
20260905090046 62 265 0.0 0.0 0.00 0.00 0.00 92 1005.4
20260905084522 62 265 0.0 0.0 0.00 0.00 0.00 92 1005.5
20260905083005 62 265 0.0 0.0 0.00 0.00 0.00 92 1005.7
20260905081601 62 265 0.0 0.0 0.00 0.00 0.00 91 1005.7
20260905080050 62 265 0.0 0.0 0.00 0.00 0.00 91 1005.8
20260905074526 62 265 0.0 0.0 0.00 0.00 0.00 90 1005.7
20260905073024 63 265 0.0 0.0 0.00 0.00 0.00 90 1005.6
20260905071534 63 265 0.0 0.0 0.00 0.00 0.00 89 1005.6
20260905070015 63 265 0.0 0.0 0.00 0.00 0.00 88 1005.4
20260905064556 64 265 0.0 0.0 0.00 0.00 0.00 88 1005.4
20260905063015 64 265 0.0 0.0 0.00 0.00 0.00 88 1005.4
20260905061610 64 265 0.0 0.0 0.00 0.00 0.00 88 1005.4
20260905060053 65 265 0.0 0.0 0.00 0.00 0.00 88 1005.4
20260905054531 65 265 0.0 0.0 0.00 0.00 0.00 87 1005.2
20260905053010 65 264 0.0 0.0 0.00 0.00 0.00 87 1005.4
20260905051539 66 273 0.0 0.0 0.00 0.00 0.00 86 1005.4
20260905050021 66 275 0.0 0.0 0.00 0.00 0.00 86 1005.2
20260905044557 66 253 0.0 0.0 0.00 0.00 0.00 86 1005.2
20260905043106 66 258 0.0 0.0 0.00 0.00 0.00 86 1005.3
20260905041519 66 251 0.0 0.0 0.00 0.00 0.00 86 1004.8
20260905040117 66 242 0.0 0.0 0.00 0.00 0.00 85 1004.8
20260905034541 66 272 0.0 0.0 0.00 0.00 0.00 84 1004.7
20260905033019 66 263 0.0 0.0 0.00 0.00 0.00 84 1004.4
20260905031559 66 247 0.0 0.0 0.00 0.00 0.00 84 1004.4
20260905031503 66 247 0.0 0.0 0.00 0.00 0.00 84 1004.3
20260905030049 66 259 1.0 0.0 0.00 0.00 0.00 83 1004.3
20260905024547 67 275 0.0 0.0 0.00 0.00 0.00 83 1004.3
20260905023043 67 268 1.0 0.0 0.00 0.00 0.00 82 1004.3
20260905021530 67 240 1.0 0.0 0.00 0.00 0.00 81 1004.3
20260905020006 68 262 1.0 0.0 0.00 0.00 0.00 80 1004.3
20260905014554 68 340 1.0 0.0 0.00 0.00 0.00 78 1004.3
20260905013049 69 225 1.0 0.0 0.00 0.00 0.00 76 1004.3
20260905011522 70 260 2.0 0.0 0.00 0.00 0.00 74 1004.5
20260905010050 71 281 0.0 0.0 0.00 0.00 0.00 73 1004.5
20260905004543 72 256 2.0 0.0 0.00 0.00 0.00 69 1004.6